Time,TemperatureF,DewpointF,PressureIn,WindDirection,WindDirectionDegrees,WindSpeedMPH,WindSpeedGustMPH,Humidity,HourlyPrecipIn,Conditions,Clouds,dailyrainin,SoftwareType,DateUTC
2013-03-06 00:01:00,21.0,8.0,30.17,SSE,150,4.0,5.0,56,0.00,,,0.00,,2013-03-06 07:01:00,
2013-03-06 00:11:00,21.0,8.0,30.17,SSE,150,4.0,5.0,56,0.00,,,0.00,,2013-03-06 07:11:00,
2013-03-06 00:22:00,22.0,9.0,30.16,SSE,153,1.0,6.0,57,0.00,,,0.00,,2013-03-06 07:22:00,
2013-03-06 00:31:00,21.0,9.0,30.16,SSE,153,2.0,4.0,58,0.00,,,0.00,,2013-03-06 07:31:00,
2013-03-06 00:41:00,21.0,9.0,30.16,SSE,153,2.0,4.0,58,0.00,,,0.00,,2013-03-06 07:41:00,
2013-03-06 00:52:00,21.0,8.0,30.16,SSE,153,0.0,3.0,56,0.00,,,0.00,,2013-03-06 07:52:00,
2013-03-06 01:01:00,20.0,7.0,30.16,SSE,153,3.0,5.0,57,0.00,,,0.00,,2013-03-06 08:01:00,
2013-03-06 01:11:00,20.0,7.0,30.16,SSE,153,3.0,5.0,57,0.00,,,0.00,,2013-03-06 08:11:00,
2013-03-06 01:21:00,20.0,8.0,30.15,SSE,153,1.0,5.0,58,0.00,,,0.00,,2013-03-06 08:21:00,
2013-03-06 01:31:00,21.0,8.0,30.16,SSE,153,0.0,4.0,56,0.00,,,0.00,,2013-03-06 08:31:00,
2013-03-06 01:42:00,21.0,8.0,30.16,SSE,153,0.0,4.0,56,0.00,,,0.00,,2013-03-06 08:42:00,
2013-03-06 01:52:00,20.0,8.0,30.16,SSE,153,0.0,4.0,60,0.00,,,0.00,,2013-03-06 08:52:00,
2013-03-06 02:01:00,20.0,8.0,30.16,SSE,153,1.0,5.0,60,0.00,,,0.00,,2013-03-06 09:01:00,
2013-03-06 02:12:00,20.0,8.0,30.16,SSE,153,1.0,5.0,60,0.00,,,0.00,,2013-03-06 09:12:00,
2013-03-06 02:21:00,20.0,8.0,30.15,SSE,153,0.0,4.0,59,0.00,,,0.00,,2013-03-06 09:21:00,
2013-03-06 02:31:00,19.0,9.0,30.15,SSE,153,0.0,3.0,64,0.00,,,0.00,,2013-03-06 09:31:00,
2013-03-06 02:41:00,19.0,9.0,30.15,SSE,153,0.0,3.0,64,0.00,,,0.00,,2013-03-06 09:41:00,
2013-03-06 02:52:00,18.0,7.0,30.14,SSE,153,3.0,4.0,62,0.00,,,0.00,,2013-03-06 09:52:00,
2013-03-06 03:01:00,19.0,7.0,30.14,SSE,153,1.0,4.0,58,0.00,,,0.00,,2013-03-06 10:01:00,
2013-03-06 03:11:00,19.0,7.0,30.14,SSE,153,1.0,4.0,58,0.00,,,0.00,,2013-03-06 10:11:00,
2013-03-06 03:21:00,18.0,6.0,30.13,SSE,153,1.0,3.0,60,0.00,,,0.00,,2013-03-06 10:21:00,
2013-03-06 03:31:00,19.0,7.0,30.12,SSE,153,3.0,5.0,58,0.00,,,0.00,,2013-03-06 10:31:00,
2013-03-06 03:41:00,19.0,7.0,30.12,SSE,153,3.0,5.0,58,0.00,,,0.00,,2013-03-06 10:41:00,
2013-03-06 03:52:00,20.0,7.0,30.13,SSE,153,1.0,3.0,57,0.00,,,0.00,,2013-03-06 10:52:00,
2013-03-06 04:01:00,19.0,6.0,30.12,SSE,153,1.0,3.0,57,0.00,,,0.00,,2013-03-06 11:01:00,
2013-03-06 04:11:00,19.0,6.0,30.12,SSE,153,1.0,3.0,57,0.00,,,0.00,,2013-03-06 11:11:00,
2013-03-06 04:22:00,20.0,6.0,30.12,SSE,153,0.0,3.0,55,0.00,,,0.00,,2013-03-06 11:22:00,
2013-03-06 04:31:00,19.0,6.0,30.13,SSE,153,0.0,5.0,57,0.00,,,0.00,,2013-03-06 11:31:00,
2013-03-06 04:42:00,19.0,6.0,30.13,SSE,153,0.0,5.0,57,0.00,,,0.00,,2013-03-06 11:42:00,
2013-03-06 04:52:00,19.0,7.0,30.13,SSE,153,0.0,3.0,58,0.00,,,0.00,,2013-03-06 11:52:00,
2013-03-06 05:01:00,20.0,8.0,30.13,SSE,153,1.0,4.0,58,0.00,,,0.00,,2013-03-06 12:01:00,
2013-03-06 05:11:00,20.0,8.0,30.13,SSE,153,1.0,4.0,58,0.00,,,0.00,,2013-03-06 12:11:00,
2013-03-06 05:21:00,19.0,7.0,30.13,SSE,153,0.0,6.0,60,0.00,,,0.00,,2013-03-06 12:21:00,
2013-03-06 05:32:00,19.0,7.0,30.13,SSE,153,3.0,5.0,59,0.00,,,0.00,,2013-03-06 12:32:00,
2013-03-06 05:42:00,19.0,7.0,30.13,SSE,153,3.0,5.0,59,0.00,,,0.00,,2013-03-06 12:42:00,
2013-03-06 05:52:00,19.0,8.0,30.14,SSE,153,0.0,5.0,61,0.00,,,0.00,,2013-03-06 12:52:00,
2013-03-06 06:01:00,19.0,9.0,30.13,SSE,153,0.0,4.0,63,0.00,,,0.00,,2013-03-06 13:01:00,
2013-03-06 06:11:00,19.0,9.0,30.13,SSE,153,0.0,4.0,63,0.00,,,0.00,,2013-03-06 13:11:00,
2013-03-06 06:21:00,18.0,7.0,30.12,SSE,153,0.0,3.0,62,0.00,,,0.00,,2013-03-06 13:21:00,
2013-03-06 06:31:00,18.0,7.0,30.11,SSE,153,0.0,4.0,62,0.00,,,0.00,,2013-03-06 13:31:00,
2013-03-06 06:42:00,18.0,7.0,30.11,SSE,153,0.0,4.0,62,0.00,,,0.00,,2013-03-06 13:42:00,
2013-03-06 06:52:00,19.0,9.0,30.11,SSE,153,0.0,4.0,63,0.00,,,0.00,,2013-03-06 13:52:00,
2013-03-06 07:01:00,19.0,7.0,30.10,SSE,153,0.0,3.0,60,0.00,,,0.00,,2013-03-06 14:01:00,
2013-03-06 07:11:00,19.0,7.0,30.10,SSE,153,0.0,3.0,60,0.00,,,0.00,,2013-03-06 14:11:00,
2013-03-06 07:21:00,19.0,8.0,30.09,SSE,153,0.0,2.0,62,0.00,,,0.00,,2013-03-06 14:21:00,
2013-03-06 07:31:00,20.0,9.0,30.09,SSE,153,0.0,1.0,63,0.00,,,0.00,,2013-03-06 14:31:00,
2013-03-06 07:41:00,20.0,9.0,30.09,SSE,153,0.0,1.0,63,0.00,,,0.00,,2013-03-06 14:41:00,
2013-03-06 07:52:00,20.0,10.0,30.08,SSE,153,0.0,0.0,64,0.00,,,0.00,,2013-03-06 14:52:00,
2013-03-06 08:01:00,22.0,11.0,30.07,SSE,153,0.0,0.0,62,0.00,,,0.00,,2013-03-06 15:01:00,
2013-03-06 08:11:00,22.0,11.0,30.07,SSE,153,0.0,0.0,62,0.00,,,0.00,,2013-03-06 15:11:00,
2013-03-06 08:21:00,25.0,13.0,30.07,SSE,153,0.0,0.0,59,0.00,,,0.00,,2013-03-06 15:21:00,
2013-03-06 08:32:00,27.0,13.0,30.06,SSE,153,0.0,0.0,56,0.00,,,0.00,,2013-03-06 15:32:00,
2013-03-06 08:41:00,27.0,13.0,30.06,SSE,153,0.0,0.0,56,0.00,,,0.00,,2013-03-06 15:41:00,
2013-03-06 08:52:00,28.0,12.0,30.06,SSE,153,0.0,3.0,51,0.00,,,0.00,,2013-03-06 15:52:00,
2013-03-06 09:01:00,29.0,12.0,30.05,SSE,153,0.0,3.0,48,0.00,,,0.00,,2013-03-06 16:01:00,
2013-03-06 09:11:00,29.0,12.0,30.05,SSE,153,0.0,3.0,48,0.00,,,0.00,,2013-03-06 16:11:00,
2013-03-06 09:21:00,29.0,12.0,30.04,SSE,153,2.0,4.0,48,0.00,,,0.00,,2013-03-06 16:21:00,
2013-03-06 09:32:00,30.0,12.0,30.03,SSE,153,0.0,4.0,46,0.00,,,0.00,,2013-03-06 16:32:00,
2013-03-06 09:41:00,30.0,12.0,30.03,SSE,153,0.0,4.0,46,0.00,,,0.00,,2013-03-06 16:41:00,
2013-03-06 09:52:00,32.0,12.0,30.03,SSE,153,1.0,3.0,43,0.00,,,0.00,,2013-03-06 16:52:00,
2013-03-06 10:01:00,34.0,13.0,30.02,SSE,153,0.0,3.0,41,0.00,,,0.00,,2013-03-06 17:01:00,
2013-03-06 10:11:00,34.0,13.0,30.02,SSE,153,0.0,3.0,41,0.00,,,0.00,,2013-03-06 17:11:00,
2013-03-06 10:21:00,34.0,13.0,30.02,SSE,147,1.0,4.0,41,0.00,,,0.00,,2013-03-06 17:21:00,
2013-03-06 10:31:00,34.0,14.0,30.02,NNE,16,1.0,5.0,43,0.00,,,0.00,,2013-03-06 17:31:00,
2013-03-06 10:41:00,34.0,14.0,30.02,NNE,16,1.0,5.0,43,0.00,,,0.00,,2013-03-06 17:41:00,
2013-03-06 10:52:00,34.0,14.0,30.01,NNE,16,0.0,5.0,44,0.00,,,0.00,,2013-03-06 17:52:00,
2013-03-06 11:01:00,35.0,14.0,29.99,NNE,16,0.0,4.0,42,0.00,,,0.00,,2013-03-06 18:01:00,
2013-03-06 11:28:00,35.0,14.0,29.98,NNE,16,0.0,5.0,41,0.00,,,0.00,,2013-03-06 18:28:00,
2013-03-06 11:41:00,35.0,15.0,29.98,NNE,15,0.0,4.0,43,0.00,,,0.00,,2013-03-06 18:41:00,
2013-03-06 11:52:00,36.0,15.0,29.97,NNE,15,0.0,4.0,41,0.00,,,0.00,,2013-03-06 18:52:00,
2013-03-06 12:01:00,36.0,16.0,29.97,NNW,338,3.0,6.0,44,0.00,,,0.00,,2013-03-06 19:01:00,
2013-03-06 12:11:00,36.0,16.0,29.97,NNW,338,3.0,6.0,44,0.00,,,0.00,,2013-03-06 19:11:00,
2013-03-06 12:21:00,36.0,15.0,29.97,West,271,1.0,5.0,41,0.00,,,0.00,,2013-03-06 19:21:00,
2013-03-06 12:31:00,37.0,16.0,29.96,NW,317,0.0,4.0,41,0.00,,,0.00,,2013-03-06 19:31:00,
2013-03-06 12:42:00,37.0,16.0,29.96,NW,317,0.0,4.0,41,0.00,,,0.00,,2013-03-06 19:42:00,
2013-03-06 12:52:00,38.0,16.0,29.94,SE,125,0.0,5.0,40,0.00,,,0.00,,2013-03-06 19:52:00,
2013-03-06 13:01:00,40.0,17.0,29.92,NE,47,2.0,6.0,39,0.00,,,0.00,,2013-03-06 20:01:00,
2013-03-06 13:11:00,40.0,17.0,29.92,NE,47,2.0,6.0,39,0.00,,,0.00,,2013-03-06 20:11:00,
2013-03-06 13:21:00,40.0,16.0,29.91,ENE,70,2.0,7.0,37,0.00,,,0.00,,2013-03-06 20:21:00,
2013-03-06 13:31:00,40.0,15.0,29.89,NNE,18,3.0,7.0,36,0.00,,,0.00,,2013-03-06 20:31:00,
2013-03-06 13:41:00,40.0,15.0,29.89,NNE,18,3.0,7.0,36,0.00,,,0.00,,2013-03-06 20:41:00,
2013-03-06 13:52:00,41.0,15.0,29.88,NNE,17,4.0,7.0,35,0.00,,,0.00,,2013-03-06 20:52:00,
2013-03-06 14:01:00,42.0,17.0,29.87,NNE,16,6.0,10.0,36,0.00,,,0.00,,2013-03-06 21:01:00,
2013-03-06 14:11:00,42.0,17.0,29.87,NNE,16,6.0,10.0,36,0.00,,,0.00,,2013-03-06 21:11:00,
2013-03-06 14:22:00,42.0,17.0,29.87,NNE,16,6.0,10.0,36,0.00,,,0.00,,2013-03-06 21:22:00,
2013-03-06 14:31:00,43.0,17.0,29.84,NNW,327,3.0,8.0,34,0.00,,,0.00,,2013-03-06 21:31:00,
2013-03-06 14:42:00,43.0,17.0,29.84,NNW,327,3.0,8.0,34,0.00,,,0.00,,2013-03-06 21:42:00,
2013-03-06 14:52:00,45.0,20.0,29.84,SE,140,5.0,8.0,36,0.00,,,0.00,,2013-03-06 21:52:00,
2013-03-06 15:01:00,49.0,21.0,29.83,ENE,70,8.0,15.0,33,0.00,,,0.00,,2013-03-06 22:01:00,
2013-03-06 15:11:00,49.0,21.0,29.83,ENE,70,8.0,15.0,33,0.00,,,0.00,,2013-03-06 22:11:00,
2013-03-06 15:21:00,50.0,21.0,29.83,SW,235,3.0,18.0,32,0.00,,,0.00,,2013-03-06 22:21:00,
2013-03-06 15:31:00,51.0,22.0,29.81,North,5,3.0,10.0,32,0.00,,,0.00,,2013-03-06 22:31:00,
2013-03-06 15:41:00,51.0,22.0,29.81,North,5,3.0,10.0,32,0.00,,,0.00,,2013-03-06 22:41:00,
2013-03-06 15:52:00,50.0,23.0,29.81,NNW,331,4.0,13.0,34,0.00,,,0.00,,2013-03-06 22:52:00,
2013-03-06 16:01:00,49.0,23.0,29.80,NW,304,4.0,16.0,36,0.00,,,0.00,,2013-03-06 23:01:00,
2013-03-06 16:11:00,49.0,23.0,29.80,NW,304,4.0,16.0,36,0.00,,,0.00,,2013-03-06 23:11:00,
2013-03-06 16:21:00,49.0,23.0,29.80,NW,304,4.0,16.0,36,0.00,,,0.00,,2013-03-06 23:21:00,
2013-03-06 16:31:00,48.0,22.0,29.80,SW,234,4.0,18.0,36,0.00,,,0.00,,2013-03-06 23:31:00,
2013-03-06 16:41:00,48.0,22.0,29.80,SW,234,4.0,18.0,36,0.00,,,0.00,,2013-03-06 23:41:00,
2013-03-06 16:52:00,47.0,21.0,29.79,NW,323,12.0,20.0,35,0.00,,,0.00,,2013-03-06 23:52:00,
2013-03-06 17:01:00,47.0,21.0,29.78,SW,220,3.0,12.0,35,0.00,,,0.00,,2013-03-07 00:01:00,
2013-03-06 17:11:00,47.0,21.0,29.78,SW,220,3.0,12.0,35,0.00,,,0.00,,2013-03-07 00:11:00,
2013-03-06 17:21:00,48.0,22.0,29.78,WSW,256,9.0,22.0,35,0.00,,,0.00,,2013-03-07 00:21:00,
2013-03-06 17:31:00,47.0,21.0,29.78,WNW,289,6.0,26.0,36,0.00,,,0.00,,2013-03-07 00:31:00,
2013-03-06 17:41:00,47.0,21.0,29.78,WNW,289,6.0,26.0,36,0.00,,,0.00,,2013-03-07 00:41:00,
2013-03-06 17:52:00,47.0,21.0,29.78,SW,218,12.0,24.0,35,0.00,,,0.00,,2013-03-07 00:52:00,
2013-03-06 18:01:00,47.0,22.0,29.79,SW,231,7.0,18.0,37,0.00,,,0.00,,2013-03-07 01:01:00,
2013-03-06 18:11:00,47.0,22.0,29.79,SW,231,7.0,18.0,37,0.00,,,0.00,,2013-03-07 01:11:00,
2013-03-06 18:21:00,47.0,21.0,29.79,SW,227,5.0,16.0,35,0.00,,,0.00,,2013-03-07 01:21:00,
2013-03-06 18:31:00,46.0,20.0,29.78,SE,139,2.0,10.0,35,0.00,,,0.00,,2013-03-07 01:31:00,
2013-03-06 18:41:00,46.0,20.0,29.78,SE,139,2.0,10.0,35,0.00,,,0.00,,2013-03-07 01:41:00,
2013-03-06 18:52:00,48.0,19.0,29.79,WSW,239,7.0,18.0,31,0.00,,,0.00,,2013-03-07 01:52:00,
2013-03-06 19:01:00,47.0,19.0,29.80,NE,51,3.0,12.0,33,0.00,,,0.00,,2013-03-07 02:01:00,
2013-03-06 19:11:00,47.0,19.0,29.80,NE,51,3.0,12.0,33,0.00,,,0.00,,2013-03-07 02:11:00,
2013-03-06 19:21:00,46.0,21.0,29.81,NNW,331,2.0,13.0,36,0.00,,,0.00,,2013-03-07 02:21:00,
2013-03-06 19:31:00,47.0,20.0,29.80,North,355,0.0,17.0,34,0.00,,,0.00,,2013-03-07 02:31:00,
2013-03-06 19:41:00,47.0,20.0,29.80,North,355,0.0,17.0,34,0.00,,,0.00,,2013-03-07 02:41:00,
2013-03-06 19:52:00,47.0,20.0,29.80,North,355,0.0,17.0,34,0.00,,,0.00,,2013-03-07 02:52:00,
2013-03-06 20:01:00,45.0,24.0,29.80,SSW,194,8.0,18.0,44,0.00,,,0.00,,2013-03-07 03:01:00,
2013-03-06 20:11:00,45.0,24.0,29.80,SSW,194,8.0,18.0,44,0.00,,,0.00,,2013-03-07 03:11:00,
2013-03-06 20:21:00,43.0,28.0,29.78,South,173,12.0,22.0,54,0.00,,,0.00,,2013-03-07 03:21:00,
2013-03-06 20:31:00,42.0,27.0,29.78,WSW,238,8.0,20.0,54,0.00,,,0.00,,2013-03-07 03:31:00,
2013-03-06 20:41:00,42.0,27.0,29.78,WSW,238,8.0,20.0,54,0.00,,,0.00,,2013-03-07 03:41:00,
2013-03-06 20:52:00,43.0,26.0,29.78,SW,217,4.0,15.0,51,0.00,,,0.00,,2013-03-07 03:52:00,
2013-03-06 21:01:00,44.0,24.0,29.78,WSW,251,7.0,15.0,45,0.00,,,0.00,,2013-03-07 04:01:00,
2013-03-06 21:11:00,44.0,24.0,29.78,WSW,251,7.0,15.0,45,0.00,,,0.00,,2013-03-07 04:11:00,
2013-03-06 21:21:00,46.0,25.0,29.77,SW,230,7.0,19.0,43,0.00,,,0.00,,2013-03-07 04:21:00,
2013-03-06 21:31:00,46.0,24.0,29.79,West,259,6.0,14.0,41,0.00,,,0.00,,2013-03-07 04:31:00,
2013-03-06 21:41:00,46.0,24.0,29.79,West,259,6.0,14.0,41,0.00,,,0.00,,2013-03-07 04:41:00,
2013-03-06 21:52:00,46.0,27.0,29.79,SW,230,11.0,22.0,48,0.00,,,0.00,,2013-03-07 04:52:00,
2013-03-06 22:01:00,42.0,29.0,29.80,SW,230,9.0,18.0,60,0.00,,,0.00,,2013-03-07 05:01:00,
2013-03-06 22:12:00,42.0,29.0,29.80,SW,230,9.0,18.0,60,0.00,,,0.00,,2013-03-07 05:12:00,
2013-03-06 22:22:00,41.0,29.0,29.80,SW,223,8.0,18.0,62,0.00,,,0.00,,2013-03-07 05:22:00,
2013-03-06 22:31:00,40.0,29.0,29.80,SSW,211,5.0,12.0,64,0.00,,,0.00,,2013-03-07 05:31:00,
2013-03-06 22:41:00,40.0,29.0,29.80,SSW,211,5.0,12.0,64,0.00,,,0.00,,2013-03-07 05:41:00,
2013-03-06 22:52:00,40.0,30.0,29.83,SSW,193,11.0,18.0,66,0.00,,,0.00,,2013-03-07 05:52:00,
2013-03-06 23:01:00,39.0,32.0,29.84,SW,223,7.0,15.0,75,0.00,,,0.00,,2013-03-07 06:01:00,
2013-03-06 23:11:00,39.0,32.0,29.84,SW,223,7.0,15.0,75,0.00,,,0.00,,2013-03-07 06:11:00,
2013-03-06 23:21:00,38.0,32.0,29.83,WSW,245,5.0,12.0,78,0.00,,,0.00,,2013-03-07 06:21:00,
2013-03-06 23:31:00,38.0,32.0,29.82,West,270,5.0,9.0,78,0.01,,,0.01,,2013-03-07 06:31:00,
2013-03-06 23:41:00,38.0,32.0,29.82,West,270,5.0,9.0,78,0.01,,,0.01,,2013-03-07 06:41:00,
2013-03-06 23:52:00,38.0,32.0,29.84,NNW,343,1.0,6.0,79,0.01,,,0.01,,2013-03-07 06:52:00,